This is the latest recevied weather packets stored in our database for station/object EA3HRE-13. If no packets are shown the sender has not sent any weather packets the latest 10 day(s).
| Time | Temp. | Humidity | Pressure | Rain* | Wind** | Luminosity | Snow |
|---|---|---|---|---|---|---|---|
| 1787912919 | 27.22° C | 100% | 1006.1 hPa | 0 mm | - | - | - |
| 1787912319 | 26.67° C | 100% | 1005.9 hPa | 0 mm | - | - | - |
| 1787911719 | 26.67° C | 100% | 1005.7 hPa | 0 mm | - | - | - |
| 1787911089 | 26.67° C | 100% | 1005.9 hPa | 0 mm | - | - | - |
| 1787910489 | 26.67° C | 100% | 1006.1 hPa | 0 mm | - | - | - |
| 1787909888 | 26.67° C | 100% | 1006.3 hPa | 0 mm | - | - | - |
| 1787909288 | 26.11° C | 100% | 1006.3 hPa | 0 mm | - | - | - |
| 1787908688 | 26.11° C | 100% | 1006.3 hPa | 0 mm | - | - | - |
| 1787908088 | 26.11° C | 100% | 1006.1 hPa | 0 mm | - | - | - |
| 1787907458 | 25.56° C | 100% | 1006.2 hPa | 0 mm | - | - | - |
| 1787906839 | 25.56° C | 100% | 1006 hPa | 0 mm | - | - | - |
| 1787906237 | 26.11° C | 100% | 1012.5 hPa | 0 mm | - | - | - |
| 1787882327 | 26.11° C | 100% | 1012.4 hPa | 0 mm | - | - | - |
| 1787881697 | 26.11° C | 100% | 1012.5 hPa | 0 mm | - | - | - |
| 1787881097 | 26.11° C | 100% | 1012.9 hPa | 0 mm | - | - | - |
| 1787880497 | 25.56° C | 100% | 1013 hPa | 0 mm | - | - | - |
| 1787879867 | 25° C | 100% | 1012.8 hPa | 0 mm | - | - | - |
| 1787879267 | 25° C | 100% | 1013 hPa | 0 mm | - | - | - |
| 1787878667 | 25° C | 100% | 1013.3 hPa | 0 mm | - | - | - |
| 1787878067 | 25° C | 100% | 1013.3 hPa | 0 mm | - | - | - |
| 1787877437 | 25° C | 100% | 1013 hPa | 0 mm | - | - | - |
| 1787876837 | 25.56° C | 100% | 1012.5 hPa | 0 mm | - | - | - |
| 1787876237 | 25.56° C | 100% | 1012.4 hPa | 0 mm | - | - | - |
| 1787875637 | 25.56° C | 100% | 1011.9 hPa | 0 mm | - | - | - |
| 1787875006 | 25.56° C | 100% | 1011.4 hPa | 0 mm | - | - | - |
* Rain latest hour (hover to see other rain measurements)
** Current wind speed in m/s (hover to see current wind gust speed)